Regional Weather Roundup
Issued by NWS Bismarck, ND

Home | Current Version | Previous Version | Text Only | Print | Product List | Glossary On
Versions: 1 2 3 4 5 6 7 8 9 10 11 12 13 14 15 16 17 18 19 20 21 22 23 24 25 26 27 28 29 30 31 32 33 34 35 36 37 38 39 40 41 42 43 44 45 46 47 48 49 50
000
ASUS43 KBIS 181059
RWRBIS

NWR BROADCAST TEXT
NATIONAL WEATHER SERVICE BISMARCK ND
600 AM CDT THU SEP 18 2014

NOTE: "FAIR" INDICATES FEW OR NO CLOUDS BELOW 12,000 FEET WITH NO
SIGNIFICANT WEATHER AND/OR OBSTRUCTIONS TO VISIBILITY.


CITY           SKY/WX    TMP DP  RH WIND       PRES   REMARKS
WILLISTON      PTCLDY    56  46  69 S5        29.79F
MINOT          CLEAR     45  43  93 E7        29.89F
MINOT AFB      NOT AVBL
BISMARCK       CLEAR     47  46  97 E8        29.93F
DICKINSON      CLEAR     52  46  80 S12       29.84F
GARRISON         N/A     52  49  89 SE10      29.89F
HETTINGER ARPT CLEAR     51  46  83 SE9       29.89F
JAMESTOWN      CLEAR     40  38  93 CALM      29.97F FOG
CARRINGTON     FAIR      41  41 100 SE8       29.97F
CROSBY         FAIR      54  48  82 S12G18    29.79F
HARVEY         FAIR      39  39 100 SE7       29.94F
HAZEN          FAIR      48  45  87 CALM      29.90F
LINTON         FAIR      46  46 100 E9        29.93F
MANDAN         FAIR      46  46 100 E9        29.93F
OAKES            N/A     45  45 100 NE5       29.97S
RUGBY          FAIR      45  45 100 SE8       29.94S
WATFORD CITY   FAIR      50  45  81 SE8       29.79F
$$

CITY           SKY/WX    TMP DP  RH WIND       PRES   REMARKS
GRAND FORKS    CLEAR     37  36  96 CALM      30.00F
GRAND FORKS AF FOG       36  34  93 N2        30.00F VSB 3/4
DEVILS LAKE    CLEAR     43  37  81 SE6       29.96F
FARGO          CLEAR     42  40  92 CALM      30.00S
CAVALIER       FOG       36  36 100 SE3       30.01F VSB 1/2
GRAFTON        FAIR      36  36 100 NE3       30.01F
GWINNER        CLOUDY    45  45 100 N6        29.99S VSB 1/2
LANGDON        FAIR      37  37 100 SE8       29.97F
ROLLA          FAIR      36  36 100 SW5       29.96F FOG
$$

CITY           SKY/WX    TMP DP  RH WIND       PRES   REMARKS
ABERDEEN       CLEAR     44  44 100 N3        29.96F
MOBRIDGE       CLEAR     50  48  93 E9        29.90F
RAPID CITY     CLEAR     51  50  96 S3        29.89F FOG
GLASGOW        CLEAR     54  48  80 E14       29.68F
SIDNEY         CLEAR     52  48  87 S5        29.79S
WOLF POINT     CLEAR     50  45  83 E6        29.72F
GLENDIVE       PTCLDY    54  50  87 S9        29.79F
MILES CITY     CLEAR     58  51  78 SE8       29.76F
BAKER          PTCLDY    52  49  89 SE8       29.82F
$$

CITY           SKY/WX    TMP DP  RH WIND       PRES   REMARKS
BILLINGS       MOCLDY    62  47  57 SW8       29.79F
GREAT FALLS    MOCLDY    67  41  38 S10       29.72F
$$




USA.gov is the U.S. government's official web portal to all federal, state and local government web resources and services.